When you browse on this site, cookies collect data to enhance your experience and personalize the content and advertising you see.
Visit our Privacy Policy to learn more. By continuing to use the site, you agree to this use of cookies and data.
  • în România
  • Lista ţărilor
  • Pe 7 zile
  • Temperatura apei
  • Hartă satelitară
  • Meteo pe hartă
  • Widget-uri
  • user-avatar
    Intrare

    Meteo pe oră la Acs

    Astăzi, 25 Aprilie, Joi

    Timp Temperatura Precipitaţii Vânt Presiune Umiditate
    00:00 +15°C° 0 mm 5 m/s 750 mmHg 86%
    01:00 +14°C° 0 mm 5 m/s 750 mmHg 85%
    02:00 +14°C° 0 mm 5 m/s 750 mmHg 84%
    03:00 +14°C° 0 mm 5 m/s 750 mmHg 84%
    04:00 +13°C° 0 mm 5 m/s 750 mmHg 83%
    05:00 +14°C° 0 mm 5 m/s 750 mmHg 80%
    06:00 +15°C° 0 mm 5 m/s 751 mmHg 77%
    07:00 +16°C° 0 mm 6 m/s 751 mmHg 74%
    08:00 +19°C° 0 mm 6 m/s 751 mmHg 67%
    09:00 +21°C° 0 mm 6 m/s 751 mmHg 60%
    10:00 +22°C° 0 mm 7 m/s 751 mmHg 54%
    11:00 +23°C° 0 mm 7 m/s 751 mmHg 51%
    12:00 +24°C° 0 mm 7 m/s 751 mmHg 48%
    13:00 +26°C° 0 mm 7 m/s 751 mmHg 46%
    14:00 +26°C° 0 mm 7 m/s 751 mmHg 47%
    15:00 +26°C° 0 mm 7 m/s 750 mmHg 49%
    16:00 +26°C° 0 mm 6 m/s 750 mmHg 50%
    17:00 +23°C° 0 mm 6 m/s 750 mmHg 56%
    18:00 +21°C° 0 mm 5 m/s 749 mmHg 61%
    19:00 +20°C° 0 mm 4 m/s 749 mmHg 67%
    20:00 +19°C° 0 mm 5 m/s 749 mmHg 64%
    21:00 +19°C° 0 mm 6 m/s 749 mmHg 61%
    22:00 +17°C° 0 mm 6 m/s 749 mmHg 58%
    23:00 +17°C° 0 mm 6 m/s 749 mmHg 56%

    Mâine, 26 Aprilie, Vineri

    Timp Temperatura Precipitaţii Vânt Presiune Umiditate
    00:00 +17°C° 0 mm 6 m/s 749 mmHg 54%
    01:00 +17°C° 0 mm 6 m/s 749 mmHg 52%
    02:00 +17°C° 0 mm 6 m/s 749 mmHg 54%
    03:00 +16°C° 0 mm 6 m/s 749 mmHg 56%
    04:00 +16°C° 0 mm 6 m/s 749 mmHg 58%
    05:00 +17°C° 0 mm 7 m/s 749 mmHg 59%
    06:00 +17°C° 0 mm 7 m/s 748 mmHg 60%
    07:00 +18°C° 0 mm 7 m/s 748 mmHg 61%
    08:00 +20°C° 0 mm 7 m/s 748 mmHg 57%
    09:00 +22°C° 0 mm 8 m/s 748 mmHg 52%
    10:00 +24°C° 0 mm 8 m/s 748 mmHg 48%
    11:00 +26°C° 0 mm 8 m/s 748 mmHg 45%
    12:00 +27°C° 0 mm 8 m/s 747 mmHg 43%
    13:00 +28°C° 0 mm 8 m/s 747 mmHg 41%
    14:00 +27°C° 0 mm 7 m/s 747 mmHg 44%
    15:00 +27°C° 0 mm 6 m/s 746 mmHg 48%
    16:00 +26°C° 0 mm 5 m/s 746 mmHg 51%
    17:00 +25°C° 0 mm 5 m/s 746 mmHg 54%
    18:00 +23°C° 0 mm 5 m/s 747 mmHg 56%
    19:00 +21°C° 0 mm 4 m/s 747 mmHg 59%
    20:00 +19°C° 0.1 mm 5 m/s 748 mmHg 61%
    21:00 +15°C° 0.1 mm 6 m/s 748 mmHg 64%
    22:00 +13°C° 0.1 mm 6 m/s 749 mmHg 66%
    23:00 +11°C° 0.3 mm 6 m/s 749 mmHg 71%

    Poimâine, 27 Aprilie, Sâmbătă

    Timp Temperatura Precipitaţii Vânt Presiune Umiditate
    00:00 +10°C° 0.3 mm 5 m/s 749 mmHg 75%
    01:00 +10°C° 0.3 mm 4 m/s 750 mmHg 80%
    02:00 +10°C° 0.1 mm 4 m/s 750 mmHg 80%
    03:00 +10°C° 0.1 mm 4 m/s 749 mmHg 81%
    04:00 +10°C° 0.1 mm 4 m/s 749 mmHg 81%
    05:00 +10°C° 0 mm 4 m/s 750 mmHg 79%
    06:00 +10°C° 0 mm 5 m/s 750 mmHg 77%
    07:00 +12°C° 0 mm 5 m/s 750 mmHg 75%
    08:00 +11°C° 0 mm 6 m/s 750 mmHg 73%
    09:00 +11°C° 0 mm 6 m/s 750 mmHg 71%
    10:00 +12°C° 0 mm 7 m/s 750 mmHg 69%
    11:00 +13°C° 0.1 mm 6 m/s 750 mmHg 69%
    12:00 +14°C° 0.1 mm 5 m/s 750 mmHg 69%
    13:00 +14°C° 0.1 mm 4 m/s 750 mmHg 68%
    14:00 +15°C° 0 mm 4 m/s 749 mmHg 64%
    15:00 +17°C° 0 mm 4 m/s 749 mmHg 60%
    16:00 +18°C° 0 mm 4 m/s 749 mmHg 56%
    17:00 +15°C° 0 mm 4 m/s 749 mmHg 61%
    18:00 +14°C° 0 mm 3 m/s 749 mmHg 67%
    19:00 +13°C° 0 mm 3 m/s 749 mmHg 72%
    20:00 +12°C° 0 mm 3 m/s 749 mmHg 74%
    21:00 +11°C° 0 mm 3 m/s 749 mmHg 76%
    22:00 +10°C° 0 mm 3 m/s 750 mmHg 77%
    23:00 +10°C° 0 mm 3 m/s 750 mmHg 78%

    28 Aprilie, Duminică

    Timp Temperatura Precipitaţii Vânt Presiune Umiditate
    00:00 +8°C° 0 mm 4 m/s 750 mmHg 79%
    01:00 +8°C° 0 mm 4 m/s 750 mmHg 80%
    02:00 +8°C° 0 mm 4 m/s 750 mmHg 82%
    03:00 +8°C° 0 mm 4 m/s 750 mmHg 84%
    04:00 +7°C° 0 mm 4 m/s 750 mmHg 86%
    05:00 +8°C° 0 mm 6 m/s 750 mmHg 82%
    06:00 +9°C° 0 mm 7 m/s 751 mmHg 77%
    07:00 +10°C° 0 mm 8 m/s 751 mmHg 73%
    08:00 +11°C° 0 mm 8 m/s 751 mmHg 68%
    09:00 +12°C° 0 mm 7 m/s 751 mmHg 64%
    10:00 +15°C° 0 mm 7 m/s 751 mmHg 59%
    11:00 +15°C° 0 mm 7 m/s 750 mmHg 58%
    12:00 +16°C° 0 mm 6 m/s 750 mmHg 56%
    13:00 +17°C° 0 mm 6 m/s 749 mmHg 55%
    14:00 +17°C° 0.1 mm 6 m/s 749 mmHg 55%
    15:00 +17°C° 0.1 mm 5 m/s 749 mmHg 56%
    16:00 +19°C° 0.1 mm 5 m/s 748 mmHg 56%
    17:00 +17°C° 0.1 mm 4 m/s 749 mmHg 63%
    18:00 +14°C° 0.1 mm 4 m/s 749 mmHg 70%
    19:00 +13°C° 0.1 mm 3 m/s 749 mmHg 76%
    20:00 +12°C° 0 mm 3 m/s 749 mmHg 80%
    21:00 +11°C° 0 mm 3 m/s 749 mmHg 83%
    22:00 +10°C° 0 mm 3 m/s 750 mmHg 86%
    23:00 +10°C° 0.3 mm 3 m/s 750 mmHg 88%

    29 Aprilie, Luni

    Timp Temperatura Precipitaţii Vânt Presiune Umiditate
    00:00 +9°C° 0.3 mm 2 m/s 750 mmHg 89%
    01:00 +9°C° 0.3 mm 2 m/s 750 mmHg 91%
    02:00 +9°C° 0.1 mm 2 m/s 750 mmHg 91%
    03:00 +8°C° 0.1 mm 2 m/s 750 mmHg 91%
    04:00 +8°C° 0.1 mm 2 m/s 750 mmHg 92%
    05:00 +9°C° 0 mm 2 m/s 749 mmHg 89%
    06:00 +10°C° 0 mm 2 m/s 749 mmHg 86%
    07:00 +11°C° 0 mm 3 m/s 749 mmHg 82%
    08:00 +13°C° 0 mm 3 m/s 749 mmHg 76%
    09:00 +14°C° 0 mm 4 m/s 749 mmHg 69%
    10:00 +16°C° 0 mm 5 m/s 749 mmHg 62%
    11:00 +17°C° 0.2 mm 6 m/s 749 mmHg 59%
    12:00 +19°C° 0.2 mm 6 m/s 748 mmHg 56%
    13:00 +18°C° 0.2 mm 7 m/s 748 mmHg 54%
    14:00 +17°C° 0.2 mm 7 m/s 747 mmHg 56%
    15:00 +17°C° 0.2 mm 7 m/s 747 mmHg 58%
    16:00 +16°C° 0.2 mm 7 m/s 747 mmHg 60%
    17:00 +15°C° 0 mm 7 m/s 747 mmHg 65%
    18:00 +13°C° 0 mm 6 m/s 747 mmHg 70%
    19:00 +10°C° 0 mm 5 m/s 747 mmHg 75%
    20:00 +10°C° 0 mm 5 m/s 747 mmHg 78%
    21:00 +9°C° 0 mm 5 m/s 747 mmHg 81%
    22:00 +10°C° 0 mm 4 m/s 747 mmHg 84%
    23:00 +10°C° 0 mm 4 m/s 747 mmHg 86%

    30 Aprilie, Marţi

    Timp Temperatura Precipitaţii Vânt Presiune Umiditate
    00:00 +8°C° 0 mm 4 m/s 747 mmHg 88%
    01:00 +8°C° 0 mm 4 m/s 746 mmHg 90%
    02:00 +8°C° 0 mm 4 m/s 746 mmHg 91%
    03:00 +8°C° 0 mm 4 m/s 746 mmHg 91%
    04:00 +8°C° 0 mm 5 m/s 746 mmHg 92%
    05:00 +8°C° 0.8 mm 5 m/s 746 mmHg 92%
    06:00 +8°C° 0.8 mm 4 m/s 746 mmHg 92%
    07:00 +8°C° 0.8 mm 4 m/s 746 mmHg 92%
    08:00 +10°C° 0.3 mm 4 m/s 746 mmHg 90%
    09:00 +9°C° 0.3 mm 5 m/s 746 mmHg 89%
    10:00 +9°C° 0.3 mm 5 m/s 747 mmHg 87%
    11:00 +9°C° 0.3 mm 5 m/s 746 mmHg 87%
    12:00 +10°C° 0.3 mm 5 m/s 746 mmHg 87%
    13:00 +10°C° 0.3 mm 5 m/s 746 mmHg 87%
    14:00 +10°C° 0.2 mm 6 m/s 746 mmHg 84%
    15:00 +11°C° 0.2 mm 6 m/s 746 mmHg 81%
    16:00 +13°C° 0.2 mm 6 m/s 746 mmHg 77%
    17:00 +11°C° 0 mm 6 m/s 746 mmHg 77%
    18:00 +10°C° 0 mm 6 m/s 747 mmHg 77%
    19:00 +9°C° 0 mm 6 m/s 747 mmHg 76%
    20:00 +9°C° 0 mm 5 m/s 747 mmHg 77%
    21:00 +8°C° 0 mm 5 m/s 748 mmHg 78%
    22:00 +7°C° 0 mm 4 m/s 748 mmHg 79%
    23:00 +7°C° 0 mm 4 m/s 748 mmHg 82%
    Arată mai mult